Time,TemperatureF,DewpointF,PressureIn,WindDirection,WindDirectionDegrees,WindSpeedMPH,WindSpeedGustMPH,Humidity,HourlyPrecipIn,Conditions,Clouds,dailyrainin,SoftwareType,DateUTC
2013-03-02 00:01:00,73.0,72.0,29.53,SSE,148,2.0,3.0,98,0.00,,,0.00,,2013-03-01 22:01:00,
2013-03-02 00:11:00,72.0,71.0,29.54,SE,135,2.0,3.0,98,0.00,,,0.00,,2013-03-01 22:11:00,
2013-03-02 00:21:00,72.0,71.0,29.54,SE,135,2.0,3.0,98,0.00,,,0.00,,2013-03-01 22:21:00,
2013-03-02 00:31:00,73.0,72.0,29.54,SE,134,2.0,2.0,98,0.00,,,0.00,,2013-03-01 22:31:00,
2013-03-02 00:41:00,73.0,72.0,29.54,SE,134,2.0,2.0,98,0.00,,,0.00,,2013-03-01 22:41:00,
2013-03-02 00:51:00,72.0,71.0,29.54,South,180,0.0,2.0,98,0.00,,,0.00,,2013-03-01 22:51:00,
2013-03-02 01:01:00,72.0,71.0,29.54,South,180,0.0,2.0,98,0.00,,,0.00,,2013-03-01 23:01:00,
2013-03-02 01:11:00,72.0,71.0,29.54,South,180,0.0,2.0,98,0.00,,,0.00,,2013-03-01 23:11:00,
2013-03-02 01:21:00,71.0,70.0,29.54,NNW,338,0.0,0.0,98,0.00,,,0.00,,2013-03-01 23:21:00,
2013-03-02 01:31:00,71.0,70.0,29.53,NNW,338,0.0,0.0,98,0.00,,,0.00,,2013-03-01 23:31:00,
2013-03-02 01:41:00,71.0,70.0,29.53,NNW,338,0.0,0.0,98,0.00,,,0.00,,2013-03-01 23:41:00,
2013-03-02 01:52:00,70.0,69.0,29.53,NNW,338,0.0,0.0,98,0.00,,,0.00,,2013-03-01 23:52:00,
2013-03-02 02:01:00,71.0,70.0,29.52,NNW,338,0.0,0.0,98,0.00,,,0.00,,2013-03-02 00:01:00,
2013-03-02 02:11:00,71.0,70.0,29.52,NNW,338,0.0,0.0,98,0.00,,,0.00,,2013-03-02 00:11:00,
2013-03-02 02:21:00,70.0,69.0,29.53,SW,218,1.0,2.0,98,0.00,,,0.00,,2013-03-02 00:21:00,
2013-03-02 02:31:00,70.0,69.0,29.52,SW,216,1.0,2.0,98,0.00,,,0.00,,2013-03-02 00:31:00,
2013-03-02 02:41:00,70.0,69.0,29.52,SW,216,1.0,2.0,98,0.00,,,0.00,,2013-03-02 00:41:00,
2013-03-02 02:52:00,72.0,71.0,29.52,SW,227,2.0,5.0,98,0.00,,,0.00,,2013-03-02 00:52:00,
2013-03-02 03:01:00,71.0,70.0,29.52,WSW,241,3.0,6.0,98,0.00,,,0.00,,2013-03-02 01:01:00,
2013-03-02 03:11:00,71.0,70.0,29.52,WSW,241,3.0,6.0,98,0.00,,,0.00,,2013-03-02 01:11:00,
2013-03-02 03:21:00,70.0,69.0,29.51,WSW,241,3.0,5.0,98,0.00,,,0.00,,2013-03-02 01:21:00,
2013-03-02 03:31:00,71.0,70.0,29.51,SSW,203,4.0,6.0,98,0.00,,,0.00,,2013-03-02 01:31:00,
2013-03-02 03:41:00,71.0,70.0,29.51,SSW,203,4.0,6.0,98,0.00,,,0.00,,2013-03-02 01:41:00,
2013-03-02 03:51:00,70.0,69.0,29.51,SW,228,3.0,6.0,98,0.00,,,0.00,,2013-03-02 01:51:00,
2013-03-02 04:01:00,70.0,69.0,29.51,SSW,208,3.0,5.0,98,0.00,,,0.00,,2013-03-02 02:01:00,
2013-03-02 04:11:00,70.0,69.0,29.51,SSW,208,3.0,5.0,98,0.00,,,0.00,,2013-03-02 02:11:00,
2013-03-02 04:21:00,70.0,69.0,29.51,SW,214,3.0,5.0,98,0.00,,,0.00,,2013-03-02 02:21:00,
2013-03-02 04:31:00,70.0,69.0,29.50,SE,145,2.0,3.0,98,0.00,,,0.00,,2013-03-02 02:31:00,
2013-03-02 04:41:00,70.0,69.0,29.50,SE,145,2.0,3.0,98,0.00,,,0.00,,2013-03-02 02:41:00,
2013-03-02 04:52:00,69.0,68.0,29.51,South,175,2.0,3.0,98,0.00,,,0.00,,2013-03-02 02:52:00,
2013-03-02 05:01:00,70.0,69.0,29.50,South,191,2.0,2.0,98,0.00,,,0.00,,2013-03-02 03:01:00,
2013-03-02 05:11:00,70.0,69.0,29.50,South,191,2.0,2.0,98,0.00,,,0.00,,2013-03-02 03:11:00,
2013-03-02 05:21:00,69.0,68.0,29.51,SSW,193,1.0,2.0,98,0.00,,,0.00,,2013-03-02 03:21:00,
2013-03-02 05:32:00,69.0,68.0,29.51,SW,224,3.0,3.0,98,0.00,,,0.00,,2013-03-02 03:32:00,
2013-03-02 05:41:00,69.0,68.0,29.51,SW,224,3.0,3.0,98,0.00,,,0.00,,2013-03-02 03:41:00,
2013-03-02 05:52:00,70.0,69.0,29.51,WSW,240,2.0,5.0,98,0.00,,,0.00,,2013-03-02 03:52:00,
2013-03-02 06:01:00,69.0,68.0,29.51,WSW,257,2.0,3.0,98,0.00,,,0.00,,2013-03-02 04:01:00,
2013-03-02 06:11:00,68.0,67.0,29.51,WSW,252,2.0,2.0,98,0.00,,,0.00,,2013-03-02 04:11:00,
2013-03-02 06:21:00,68.0,67.0,29.51,WSW,252,2.0,2.0,98,0.00,,,0.00,,2013-03-02 04:21:00,
2013-03-02 06:31:00,68.0,67.0,29.52,West,269,2.0,2.0,98,0.00,,,0.00,,2013-03-02 04:31:00,
2013-03-02 06:41:00,68.0,67.0,29.52,West,269,2.0,2.0,98,0.00,,,0.00,,2013-03-02 04:41:00,
2013-03-02 06:51:00,68.0,67.0,29.52,West,270,2.0,3.0,98,0.00,,,0.00,,2013-03-02 04:51:00,
2013-03-02 07:01:00,68.0,67.0,29.52,SSW,212,2.0,3.0,98,0.00,,,0.00,,2013-03-02 05:01:00,
2013-03-02 07:12:00,68.0,67.0,29.52,SSW,212,2.0,3.0,98,0.00,,,0.00,,2013-03-02 05:12:00,
2013-03-02 07:22:00,69.0,68.0,29.52,SW,225,0.0,1.0,98,0.00,,,0.00,,2013-03-02 05:22:00,
2013-03-02 07:31:00,71.0,70.0,29.53,West,270,2.0,2.0,98,0.00,,,0.00,,2013-03-02 05:31:00,
2013-03-02 07:41:00,71.0,70.0,29.53,West,270,2.0,2.0,98,0.00,,,0.00,,2013-03-02 05:41:00,
2013-03-02 07:52:00,73.0,72.0,29.53,WSW,258,3.0,3.0,98,0.00,,,0.00,,2013-03-02 05:52:00,
2013-03-02 08:01:00,75.0,74.0,29.53,WSW,255,2.0,3.0,98,0.00,,,0.00,,2013-03-02 06:01:00,
2013-03-02 08:11:00,75.0,74.0,29.53,WSW,255,2.0,3.0,98,0.00,,,0.00,,2013-03-02 06:11:00,
2013-03-02 08:21:00,78.0,77.0,29.53,WSW,257,3.0,5.0,98,0.00,,,0.00,,2013-03-02 06:21:00,
2013-03-02 08:31:00,79.0,79.0,29.53,West,276,3.0,6.0,100,0.00,,,0.00,,2013-03-02 06:31:00,
2013-03-02 08:41:00,79.0,79.0,29.53,West,276,3.0,6.0,100,0.00,,,0.00,,2013-03-02 06:41:00,
2013-03-02 08:51:00,81.0,81.0,29.53,West,270,4.0,6.0,100,0.00,,,0.00,,2013-03-02 06:51:00,
2013-03-02 09:01:00,82.0,82.0,29.53,SSW,209,4.0,6.0,100,0.00,,,0.00,,2013-03-02 07:01:00,
2013-03-02 09:11:00,84.0,84.0,29.53,SW,229,3.0,6.0,100,0.00,,,0.00,,2013-03-02 07:11:00,
2013-03-02 09:21:00,84.0,84.0,29.53,SW,229,3.0,6.0,100,0.00,,,0.00,,2013-03-02 07:21:00,
2013-03-02 09:32:00,82.0,82.0,29.53,WSW,249,3.0,7.0,100,0.00,,,0.00,,2013-03-02 07:32:00,
2013-03-02 09:41:00,82.0,82.0,29.53,WSW,249,3.0,7.0,100,0.00,,,0.00,,2013-03-02 07:41:00,
2013-03-02 09:51:00,86.0,86.0,29.52,SSE,164,2.0,6.0,100,0.00,,,0.00,,2013-03-02 07:51:00,
2013-03-02 10:01:00,86.0,86.0,29.52,South,185,4.0,7.0,100,0.00,,,0.00,,2013-03-02 08:01:00,
2013-03-02 10:11:00,86.0,86.0,29.52,South,185,4.0,7.0,100,0.00,,,0.00,,2013-03-02 08:11:00,
2013-03-02 10:21:00,82.0,82.0,29.53,SW,215,6.0,10.0,100,0.00,,,0.00,,2013-03-02 08:21:00,
2013-03-02 10:32:00,82.0,82.0,29.54,SSW,201,7.0,12.0,100,0.00,,,0.00,,2013-03-02 08:32:00,
2013-03-02 10:42:00,82.0,82.0,29.54,SSW,201,7.0,12.0,100,0.00,,,0.00,,2013-03-02 08:42:00,
2013-03-02 10:52:00,81.0,81.0,29.53,SSW,193,8.0,13.0,100,0.00,,,0.00,,2013-03-02 08:52:00,
2013-03-02 11:01:00,83.0,83.0,29.53,SSW,192,6.0,14.0,100,0.00,,,0.00,,2013-03-02 09:01:00,
2013-03-02 11:11:00,81.0,81.0,29.52,South,173,9.0,12.0,100,0.00,,,0.00,,2013-03-02 09:11:00,
2013-03-02 11:21:00,81.0,81.0,29.52,South,173,9.0,12.0,100,0.00,,,0.00,,2013-03-02 09:21:00,
2013-03-02 11:31:00,81.0,81.0,29.52,South,173,9.0,12.0,100,0.00,,,0.00,,2013-03-02 09:31:00,
2013-03-02 11:42:00,81.0,81.0,29.52,South,173,9.0,12.0,100,0.00,,,0.00,,2013-03-02 09:42:00,
2013-03-02 11:51:00,83.0,83.0,29.52,South,179,7.0,10.0,100,0.00,,,0.00,,2013-03-02 09:51:00,
2013-03-02 12:01:00,83.0,83.0,29.52,South,171,10.0,14.0,100,0.00,,,0.00,,2013-03-02 10:01:00,
2013-03-02 12:14:00,83.0,83.0,29.52,South,171,10.0,14.0,100,0.00,,,0.00,,2013-03-02 10:14:00,
2013-03-02 12:21:00,81.0,81.0,29.52,South,180,9.0,14.0,100,0.00,,,0.00,,2013-03-02 10:21:00,
2013-03-02 12:31:00,82.0,82.0,29.52,SSW,200,7.0,10.0,100,0.00,,,0.00,,2013-03-02 10:31:00,
2013-03-02 12:41:00,82.0,82.0,29.52,SSW,200,7.0,10.0,100,0.00,,,0.00,,2013-03-02 10:41:00,
2013-03-02 12:51:00,81.0,81.0,29.51,SSE,167,9.0,13.0,100,0.00,,,0.00,,2013-03-02 10:51:00,
2013-03-02 13:01:00,80.0,80.0,29.50,South,170,9.0,14.0,100,0.00,,,0.00,,2013-03-02 11:01:00,
2013-03-02 13:11:00,80.0,80.0,29.50,South,170,9.0,14.0,100,0.00,,,0.00,,2013-03-02 11:11:00,
2013-03-02 13:21:00,81.0,81.0,29.50,SE,146,10.0,14.0,100,0.00,,,0.00,,2013-03-02 11:21:00,
2013-03-02 13:31:00,82.0,82.0,29.50,South,185,11.0,15.0,100,0.00,,,0.00,,2013-03-02 11:31:00,
2013-03-02 13:41:00,82.0,82.0,29.50,South,185,11.0,15.0,100,0.00,,,0.00,,2013-03-02 11:41:00,
2013-03-02 13:52:00,82.0,82.0,29.51,South,182,9.0,15.0,100,0.00,,,0.00,,2013-03-02 11:52:00,
2013-03-02 14:02:00,82.0,82.0,29.50,South,177,10.0,12.0,100,0.00,,,0.00,,2013-03-02 12:02:00,
2013-03-02 14:11:00,82.0,82.0,29.50,South,177,10.0,12.0,100,0.00,,,0.00,,2013-03-02 12:11:00,
2013-03-02 14:21:00,82.0,82.0,29.49,SSE,167,6.0,10.0,100,0.00,,,0.00,,2013-03-02 12:21:00,
2013-03-02 14:32:00,84.0,84.0,29.49,ESE,105,6.0,10.0,100,0.00,,,0.00,,2013-03-02 12:32:00,
2013-03-02 14:42:00,84.0,84.0,29.49,ESE,105,6.0,10.0,100,0.00,,,0.00,,2013-03-02 12:42:00,
2013-03-02 14:53:00,83.0,83.0,29.49,SSE,157,9.0,14.0,100,0.00,,,0.00,,2013-03-02 12:53:00,
2013-03-02 15:01:00,84.0,84.0,29.49,South,180,6.0,10.0,100,0.00,,,0.00,,2013-03-02 13:01:00,
2013-03-02 15:11:00,84.0,84.0,29.49,South,180,6.0,10.0,100,0.00,,,0.00,,2013-03-02 13:11:00,
2013-03-02 15:21:00,84.0,84.0,29.49,SE,124,7.0,10.0,100,0.00,,,0.00,,2013-03-02 13:21:00,
2013-03-02 15:31:00,85.0,85.0,29.49,SE,146,6.0,9.0,100,0.00,,,0.00,,2013-03-02 13:31:00,
2013-03-02 15:41:00,85.0,85.0,29.49,SE,146,6.0,9.0,100,0.00,,,0.00,,2013-03-02 13:41:00,
2013-03-02 15:52:00,85.0,85.0,29.49,ESE,119,6.0,9.0,100,0.00,,,0.00,,2013-03-02 13:52:00,
2013-03-02 16:01:00,84.0,84.0,29.48,South,170,6.0,10.0,100,0.00,,,0.00,,2013-03-02 14:01:00,
2013-03-02 16:11:00,84.0,84.0,29.48,South,170,6.0,10.0,100,0.00,,,0.00,,2013-03-02 14:11:00,
2013-03-02 16:21:00,81.0,81.0,29.48,SSE,150,8.0,12.0,100,0.00,,,0.00,,2013-03-02 14:21:00,
2013-03-02 16:32:00,83.0,83.0,29.48,SE,144,7.0,10.0,100,0.00,,,0.00,,2013-03-02 14:32:00,
2013-03-02 16:41:00,83.0,83.0,29.48,SE,144,7.0,10.0,100,0.00,,,0.00,,2013-03-02 14:41:00,
2013-03-02 16:52:00,85.0,85.0,29.48,SE,127,5.0,10.0,100,0.00,,,0.00,,2013-03-02 14:52:00,
2013-03-02 17:01:00,86.0,86.0,29.47,SE,134,5.0,7.0,100,0.00,,,0.00,,2013-03-02 15:01:00,
2013-03-02 17:11:00,86.0,86.0,29.47,SE,134,5.0,7.0,100,0.00,,,0.00,,2013-03-02 15:11:00,
2013-03-02 17:21:00,87.0,87.0,29.48,East,97,3.0,6.0,100,0.00,,,0.00,,2013-03-02 15:21:00,
2013-03-02 17:31:00,86.0,86.0,29.47,SE,130,5.0,7.0,100,0.00,,,0.00,,2013-03-02 15:31:00,
2013-03-02 17:41:00,86.0,86.0,29.47,SE,130,5.0,7.0,100,0.00,,,0.00,,2013-03-02 15:41:00,
2013-03-02 17:51:00,87.0,87.0,29.48,SSE,153,3.0,6.0,100,0.00,,,0.00,,2013-03-02 15:51:00,
2013-03-02 18:01:00,87.0,87.0,29.49,SSE,147,3.0,6.0,100,0.00,,,0.00,,2013-03-02 16:01:00,
2013-03-02 18:11:00,87.0,87.0,29.49,SSE,147,3.0,6.0,100,0.00,,,0.00,,2013-03-02 16:11:00,
2013-03-02 18:21:00,83.0,83.0,29.49,ESE,107,4.0,6.0,100,0.00,,,0.00,,2013-03-02 16:21:00,
2013-03-02 18:31:00,81.0,81.0,29.49,South,170,5.0,7.0,100,0.00,,,0.00,,2013-03-02 16:31:00,
2013-03-02 18:41:00,81.0,81.0,29.49,South,170,5.0,7.0,100,0.00,,,0.00,,2013-03-02 16:41:00,
2013-03-02 18:51:00,82.0,82.0,29.49,SSE,151,3.0,6.0,100,0.00,,,0.00,,2013-03-02 16:51:00,
2013-03-02 19:01:00,81.0,81.0,29.50,South,177,2.0,6.0,100,0.00,,,0.00,,2013-03-02 17:01:00,
2013-03-02 19:11:00,80.0,80.0,29.50,ESE,119,1.0,3.0,100,0.00,,,0.00,,2013-03-02 17:11:00,
2013-03-02 19:21:00,80.0,80.0,29.50,ESE,119,1.0,3.0,100,0.00,,,0.00,,2013-03-02 17:21:00,
2013-03-02 20:01:00,77.0,49.0,29.52,South,171,1.0,5.0,38,0.00,,,0.00,,2013-03-02 18:01:00,
2013-03-02 20:11:00,77.0,49.0,29.52,South,171,1.0,5.0,38,0.00,,,0.00,,2013-03-02 18:11:00,
2013-03-02 20:21:00,78.0,54.0,29.52,SSE,154,0.0,2.0,43,0.00,,,0.00,,2013-03-02 18:21:00,
2013-03-02 20:31:00,75.0,12.0,29.52,South,178,0.0,2.0,9,0.00,,,0.00,,2013-03-02 18:31:00,
2013-03-02 20:41:00,75.0,12.0,29.52,South,178,0.0,2.0,9,0.00,,,0.00,,2013-03-02 18:41:00,
2013-03-02 20:51:00,75.0,12.0,29.52,South,178,0.0,2.0,9,0.00,,,0.00,,2013-03-02 18:51:00,
2013-03-02 21:01:00,74.0,73.0,29.53,SW,225,0.0,1.0,98,0.00,,,0.00,,2013-03-02 19:01:00,
2013-03-02 21:11:00,74.0,73.0,29.53,SW,225,0.0,1.0,98,0.00,,,0.00,,2013-03-02 19:11:00,
2013-03-02 21:21:00,72.0,71.0,29.54,SW,225,0.0,0.0,98,0.00,,,0.00,,2013-03-02 19:21:00,
2013-03-02 21:52:00,70.0,69.0,29.54,SW,225,0.0,0.0,98,0.00,,,0.00,,2013-03-02 19:52:00,
2013-03-02 22:01:00,71.0,70.0,29.55,SW,225,0.0,0.0,98,0.00,,,0.00,,2013-03-02 20:01:00,
2013-03-02 22:11:00,71.0,70.0,29.55,SW,225,0.0,0.0,98,0.00,,,0.00,,2013-03-02 20:11:00,
2013-03-02 22:21:00,70.0,69.0,29.55,SW,225,0.0,0.0,98,0.00,,,0.00,,2013-03-02 20:21:00,
2013-03-02 22:31:00,70.0,69.0,29.55,SW,225,0.0,0.0,98,0.00,,,0.00,,2013-03-02 20:31:00,
2013-03-02 22:41:00,70.0,69.0,29.55,SW,225,0.0,0.0,98,0.00,,,0.00,,2013-03-02 20:41:00,
2013-03-02 22:52:00,70.0,69.0,29.55,SW,225,0.0,0.0,98,0.00,,,0.00,,2013-03-02 20:52:00,
2013-03-02 23:02:00,69.0,68.0,29.54,SW,225,0.0,0.0,98,0.00,,,0.00,,2013-03-02 21:02:00,
2013-03-02 23:11:00,69.0,68.0,29.54,SW,225,0.0,0.0,98,0.00,,,0.00,,2013-03-02 21:11:00,
2013-03-02 23:21:00,69.0,68.0,29.55,SW,233,0.0,0.0,98,0.00,,,0.00,,2013-03-02 21:21:00,
2013-03-02 23:31:00,69.0,68.0,29.55,SW,225,0.0,0.0,98,0.00,,,0.00,,2013-03-02 21:31:00,
2013-03-02 23:41:00,69.0,68.0,29.55,SW,225,0.0,0.0,98,0.00,,,0.00,,2013-03-02 21:41:00,
2013-03-02 23:52:00,69.0,68.0,29.55,SW,225,0.0,0.0,98,0.00,,,0.00,,2013-03-02 21:52:00,